Regional Weather Roundup
Issued by NWS

Home | Current Version | Previous Version | Text Only | Print | Product List | Glossary Off
Versions: 1 2 3 4 5 6 7 8 9 10 11 12 13 14 15 16 17 18 19 20 21 22 23 24 25 26 27 28 29 30 31 32 33 34 35 36 37 38 39 40 41 42 43 44 45 46 47 48 49 50

000
ASUS43 KTOP 012059
RWRKS

WEATHER ROUNDUP FOR KANSAS
NATIONAL WEATHER SERVICE GOODLAND KS
300 PM CST SUN FEB 01 2015

NOTE:  "FAIR" INDICATES FEW OR NO CLOUDS BELOW 12,000 FEET WITH NO
SIGNIFICANT WEATHER AND/OR OBSTRUCTIONS TO VISIBILITY.

KSZ001>006-013>018-027>032-041>047-012200-
NORTHWEST KANSAS

CITY           SKY/WX    TMP DP  RH WIND       PRES   REMARKS
GOODLAND       CLOUDY    19  10  68 N29G36    30.20F WCI   0
HAYS           CLOUDY    19   3  49 N32G40    30.22R WCI   0
HILL CITY      PTSUNNY   18   8  65 NW32G41   30.25R WCI  -2
RUSSELL        FLURRIES  19  13  77 NW29G37   30.20R WCI   0
$$

KSZ061>065-074>080-084>089-012200-
SOUTHWEST KANSAS

CITY           SKY/WX    TMP DP  RH WIND       PRES   REMARKS
DODGE CITY     PTSUNNY   25  10  53 N29G40    30.17S WCI   8
ELKHART          N/A     32  15  49 N15         N/A  WCI  22
GARDEN CITY    SUNNY     25  10  53 N32G40    30.18S WCI   8
LIBERAL        SUNNY     34  18  51 NW25G37   30.21S WCI  21
$$

KSZ066>073-081>083-090>101-012200-
SOUTHEAST KANSAS

CITY           SKY/WX    TMP DP  RH WIND       PRES   REMARKS
CHANUTE        CLOUDY    24  16  71 NW23G35   30.02R WCI   9
COFFEYVILLE    CLOUDY    28  18  66 NW22G33   30.04R WCI  14
HUTCHINSON     FLURRIES  22  11  62 N28G38    30.15R WCI   4
MEDICINE LODGE   N/A     27  15  61 N32G44    30.17R WCI  10
NEWTON         CLOUDY    19   9  63 NW33G45   30.11R WCI   0
PARSONS        CLOUDY    27  18  69 NW28G36   30.04R WCI  11
WICHITA INTL   FLURRIES  23  12  62 N24G37    30.13R WCI   7
WICHITA JABRA  FLURRIES  21  19  92 NW28G39   30.11R WCI   3
WICHITA MCCONL FLURRIES  23  14  68 N25G37    30.10R WCI   7
WINFIELD       PTSUNNY   28  17  63 NW32G38   30.12R WCI  12
$$

KSZ007>012-019>026-033>040-048>060-102>105-012200-
NORTHEAST KANSAS

CITY           SKY/WX    TMP DP  RH WIND       PRES   REMARKS
CONCORDIA      LGT SNOW  12   6  77 N26G35    30.18R WCI  -8
EMPORIA        FLURRIES  19  12  74 NW28G36   30.06R WCI   1
LAWRENCE       CLOUDY    22  16  78 NW25G35   30.00R WCI   5
MANHATTAN      LGT SNOW  16   9  74 N12G20    30.16R WCI   3
OLATHE IND     LGT SNOW  23  18  81 NW23G32   29.95R WCI   7
OLATHE EXE     CLOUDY    24  19  81 NW20G36   29.91R WCI  10
SALINA         LGT SNOW  18  11  74 N29G38    30.18R VSB 3/4 WCI  -1
TOPEKA BILLARD LGT SNOW  20  13  74 NW22G36   30.06R WCI   3
TOPEKA FORBES  LGT SNOW  21  14  74 NW28G40   30.03R WCI   3
$$


USA.gov is the U.S. government's official web portal to all federal, state and local government web resources and services.